Tracking 35237 objects as of 5-Sep-2026
HD Live streaming from Space Station
objects crossing your sky now

COSMOS 1351 DEB


COSMOS 1351 DEB is no longer on orbit


NORAD ID: 13838
Int'l Code: 1982-034F
Launch date: April 21, 1982
Source: Commonwealth of Independent States (former USSR) (CIS)
Launch site: KAPUSTIN YAR MISSILE AND SPACE COMPLEX (KYMTR)
Decay date: 1983-02-25

Note: This is SATELLITE DEBRIS
Your satellite tracking list
Your tracking list is empty




NASA's NSSDC Master Catalog

Two Line Element Set (TLE):
1 13838U 82034  F 83056.36926284  .08323936 +06717-5 +06381-3 0  9993
2 13838 050.6779 020.2742 0014564 315.2476 045.6067 16.21424294048380
Source of the keplerian elements: AFSPC